FW1340 Weather Reports


time (UTC)temp
F
wind
direction
speed
knots
gust
knots
rain 1hr
in
rain 24hr
in
rain mn
in
humidity
%
barometer
mb
20260502151556 56 256 0.0 0.0 0.00 0.00 0.00 89 1012.4
20260502123041 53 269 0.0 0.0 0.00 0.00 0.00 90 1011.3
20260502121528 53 269 0.0 0.0 0.00 0.00 0.00 90 1011.4
20260502114524 53 269 0.0 0.0 0.00 0.00 0.00 90 1011.4
20260502113029 53 288 0.0 0.0 0.00 0.00 0.00 89 1011.6
20260502111521 53 281 0.0 0.0 0.00 0.00 0.00 88 1011.7
20260502110022 54 268 0.0 0.0 0.00 0.00 0.00 88 1011.5
20260502104521 54 268 0.0 0.0 0.00 0.00 0.00 87 1011.7
20260502103018 54 285 0.0 0.0 0.00 0.00 0.00 86 1011.6
20260502101516 54 280 0.0 0.0 0.00 0.00 0.00 86 1011.6
20260502091508 56 263 0.0 0.0 0.00 0.00 0.00 82 1011.8
20260502070105 59 266 0.0 0.0 0.00 0.00 0.00 81 1012.0
20260502064552 59 266 0.0 0.0 0.00 0.00 0.00 81 1012.1
20260502063050 60 266 0.0 0.0 0.00 0.00 0.00 81 1012.0
20260502061547 60 269 0.0 0.0 0.00 0.00 0.00 81 1011.8
20260502060051 60 267 0.0 0.0 0.00 0.00 0.00 80 1012.0
20260502054547 61 269 0.0 0.0 0.00 0.00 0.00 79 1012.0
20260502053051 62 263 0.0 0.0 0.00 0.00 0.00 78 1012.0
20260502051557 62 263 0.0 0.0 0.00 0.00 0.00 77 1012.0
20260502050046 63 261 0.0 0.0 0.00 0.00 0.00 76 1011.9
20260502044545 64 261 0.0 0.0 0.00 0.00 0.00 75 1011.9
20260502043046 65 252 0.0 0.0 0.00 0.00 0.00 74 1011.7
20260502041542 66 269 0.0 0.0 0.00 0.00 0.00 73 1011.6
20260502040042 67 256 0.0 0.0 0.00 0.00 0.00 70 1011.3
20260502034542 68 263 0.0 0.0 0.00 0.00 0.00 69 1011.1
20260502033040 69 250 0.0 0.0 0.00 0.00 0.00 68 1010.9
20260502031540 70 273 0.0 0.0 0.00 0.00 0.00 68 1010.8
20260502030045 71 257 0.0 0.0 0.00 0.00 0.00 66 1010.6
20260502024540 73 269 0.0 0.0 0.00 0.00 0.00 62 1010.5
20260502023039 75 263 0.0 0.0 0.00 0.00 0.00 58 1010.4
20260502021537 77 250 0.0 0.0 0.00 0.00 0.00 55 1010.4
20260502020037 78 253 0.0 0.0 0.00 0.00 0.00 52 1010.4
20260502014537 79 268 0.0 0.0 0.00 0.00 0.00 50 1010.4
20260502013036 80 286 0.0 0.0 0.00 0.00 0.00 48 1010.4
20260502011535 80 255 0.0 0.0 0.00 0.00 0.00 47 1010.3
20260502010034 80 269 0.0 0.0 0.00 0.00 0.00 47 1010.5
20260502004533 81 251 0.0 0.0 0.00 0.00 0.00 47 1010.5
20260502003032 82 250 0.0 0.0 0.00 0.00 0.00 45 1010.5
20260502001537 82 252 0.0 0.0 0.00 0.00 0.00 46 1010.6
20260502000030 83 282 0.0 0.0 0.00 0.00 0.00 47 1010.6
20260501234532 83 252 0.0 0.0 0.00 0.00 0.00 48 1010.8
20260501233026 83 297 0.0 0.0 0.00 0.00 0.00 47 1010.9
20260501231524 83 253 0.0 0.0 0.00 0.00 0.00 47 1010.9
20260501230022 83 298 0.0 0.0 0.00 0.00 0.00 47 1011.1
20260501224520 83 268 0.0 0.0 0.00 0.00 0.00 49 1011.5
20260501223018 83 339 0.0 0.0 0.00 0.00 0.00 50 1011.6
20260501221516 83 240 0.0 0.0 0.00 0.00 0.00 50 1012.0
20260501220014 83 327 0.0 0.0 0.00 0.00 0.00 49 1012.1
20260501214511 82 336 0.0 0.0 0.00 0.00 0.00 49 1012.4
20260501213011 82 332 0.0 0.0 0.00 0.00 0.00 50 1012.3
20260501211507 81 298 0.0 0.0 0.00 0.00 0.00 50 1012.5
20260501210003 81 240 0.0 0.0 0.00 0.00 0.00 50 1012.5
20260501204603 80 245 0.0 0.0 0.00 0.00 0.00 50 1012.6
20260501203059 79 234 0.0 0.0 0.00 0.00 0.00 51 1012.8
20260501201558 78 213 0.0 0.0 0.00 0.00 0.00 52 1013.0
20260501200051 78 271 0.0 0.0 0.00 0.00 0.00 53 1013.1
20260501194600 76 232 0.0 0.0 0.00 0.00 0.00 53 1013.4
20260501193044 76 239 0.0 0.0 0.00 0.00 0.00 54 1013.5
20260501191551 75 295 0.0 0.0 0.00 0.00 0.00 55 1013.7
20260501190046 74 292 0.0 0.0 0.00 0.00 0.00 56 1013.9
20260501184533 74 284 0.0 0.0 0.00 0.00 0.00 56 1014.1
20260501183030 73 236 0.0 0.0 0.00 0.00 0.00 58 1014.3
20260501181529 73 234 0.0 0.0 0.00 0.00 0.00 59 1014.4
20260501180030 72 246 0.0 0.0 0.00 0.00 0.00 60 1014.4
20260501174522 71 189 0.0 0.0 0.00 0.00 0.00 60 1014.3
20260501173022 70 267 0.0 0.0 0.00 0.00 0.00 64 1014.5
20260501171510 68 282 0.0 0.0 0.00 0.00 0.00 64 1014.4
20260501170009 68 246 0.0 0.0 0.00 0.00 0.00 65 1014.4
20260501164506 68 263 0.0 0.0 0.00 0.00 0.00 66 1014.4
20260501163002 66 234 0.0 0.0 0.00 0.00 0.00 68 1014.5
20260501161558 65 217 0.0 0.0 0.00 0.00 0.00 69 1014.5
20260501160053 64 248 0.0 0.0 0.00 0.00 0.00 70 1014.5
20260501154548 63 254 0.0 0.0 0.00 0.00 0.00 73 1014.5